Regional Weather Roundup
Issued by NWS

Home | Current Version | Previous Version | Graphics & Text | Print | Product List | Glossary On
Versions: 1 2 3 4 5 6 7 8 9 10 11 12 13 14 15 16 17 18 19 20 21 22 23 24 25 26 27 28 29 30 31 32 33 34 35 36 37 38 39 40 41 42 43 44 45 46 47 48 49 50
000
ASUS45 KSLC 180710
RWRUT

UTAH REGIONAL WEATHER ROUNDUP
NATIONAL WEATHER SERVICE SALT LAKE CITY UT
100 AM MDT WED OCT 18 2017

UTZ001>011-023>025-180800-

NORTHERN UTAH

CITY           SKY/WX    TMP DP  RH WIND       PRES   REMARKS
BRIGHAM CITY   CLEAR     38  28  66 CALM      30.17R
HILL AFB       PTCLDY    46  22  39 SE6       30.16S
LOGAN          CLEAR     34  26  72 N6        30.17R WCI  29
OGDEN          PTCLDY    47  27  45 S6        30.14F
SALT LAKE CITY MOCLDY    48  36  63 SE6       30.16S
TOOELE VALLEY  MOCLDY    37  32  81 CALM      30.17S
WENDOVER       PTCLDY    42  22  44 VRB3      30.17R
WEST JORDAN    MOCLDY    45  28  52 CALM      30.18R

$$

UTZ011>015-024>027-180800-

CENTRAL/NORTHEAST UTAH

CITY           SKY/WX    TMP DP  RH WIND       PRES   REMARKS
PROVO AIRPORT  MOCLDY    43  32  65 NW6       30.16S
MOAB/CANYONLAN MOCLDY    42  11  28 CALM      30.16F
DELTA          CLOUDY    45  18  33 W3        30.15R
PRICE          MOCLDY    46   7  20 E3        30.21F
ROOSEVELT      CLOUDY    37  23  56 SW5       30.20F WCI  34
VERNAL         CLOUDY    41  21  44 W3        30.19S

$$

UTZ013>016-019>022-027-180800-

SOUTHERN UTAH

CITY           SKY/WX    TMP DP  RH WIND       PRES   REMARKS
BRYCE CANYON   PTCLDY    34  17  50 W9        30.33F WCI  27
CEDAR CITY     PTCLDY    50  20  30 SE9       30.19F
MILFORD        MOCLDY    51  19  28 S6        30.16F
ST GEORGE      PTSUNNY   62  21  20 E3        30.07S
HANKSVILLE     MOCLDY    41  14  33 CALM      30.20S
BLANDING         N/A     49   9  20 N3        30.31S

$$

REGIONAL REPORTS     COLORADO/ARIZONA

CITY           SKY/WX    TMP DP  RH WIND       PRES   REMARKS
CRAIG, CO      CLOUDY    29  19  66 CALM      30.24R
GRAND JUNCTION CLOUDY    46  13  26 SE12      30.20S
RIFLE, CO      CLOUDY    38  17  42 CALM      30.25S
MONTROSE, CO   CLOUDY    40  15  36 S12       30.27S WCI  33
CORTEZ, CO     CLOUDY    34  16  47 NE3       30.27R
COLORADO CITY    N/A     43  23  45 SE7       30.20F
PAGE, AZ       PTCLDY    55  20  25 CALM      30.15S
GRAND CANYON   MOCLDY    36  16  44 CALM      30.30S HAZE
KINGMAN, AZ    PTCLDY    59  32  36 SE6       30.08F
FLAGSTAFF, AZ  PTCLDY    38  20  48 CALM      30.31F

$$

REGIONAL REPORTS    NEVADA/IDAHO/WYOMING

CITY           SKY/WX    TMP DP  RH WIND       PRES   REMARKS
LAS VEGAS, NV  PTCLDY    68  21  16 SW7       29.99F
ELY, NY        MOCLDY    37   3  24 S9        30.26R WCI  30
ELKO, NV       MOCLDY    34  17  50 CALM      30.22S
POCATELLO, ID  CLEAR     54  22  28 S14       30.14S
BURLEY, ID     CLEAR     39  23  52 SW5       30.14S
FORT BRIDGER,    N/A     46   5  18 SW12      30.26F
EVANSTON, WY   CLOUDY    47   8  20 SW7       30.25S
ROCK SPRINGS,  CLOUDY    48   0  13 SW10      30.20S
KEMMERER, WY   CLOUDY    37   9  30 NW5       30.24F WCI  34

$$



USA.gov is the U.S. government's official web portal to all federal, state and local government web resources and services.